Location: Newark
(35.2672°N, 80.7344°W)
Time: 00:33:10
(UTC+00:00)

Transit 2A Rocket - Pass Details

Date: 29 January 2020
Orbit: 591 x 912 km, 66.7° (Epoch: 24 February)

Event Time Altitude Azimuth Distance (km) Brightness Sun altitude
Rises 09:37:32 0° 219° (SW) 2,851 - -34.2°
Reaches altitude 10° 09:39:52 10° 225° (SW) 1,931 - -33.7°
Maximum altitude 09:44:01 47° 300° (WNW) 786 - -32.9°
Drops below altitude 10° 09:48:10 10° 15° (NNE) 1,933 - -32.0°
Exits shadow 09:49:22 - 19° (NNE) 2,403 7.8 -31.8°
Sets 09:50:30 0° 21° (NNE) 2,856 8.2 -31.6°
